sat.trackr.live / text

‹ back to catalog

HORS 2

NORAD 57196 · 2023-091AG

PAYLOAD ACTIVE UNKNOWN

§ Identity

Operator
Country
CIS
Launch date
2023-06-27
Launch site
VOSTO
Launch vehicle
Mass (kg)
RCS (m²)

External: N2YO · Heavens-Above · Gunter

§ Orbital elements

Epoch: 2026-05-25T03:59:43.764000Z

Period
94.04 min
Inclination
97.5099°
Eccentricity
0.0009156
Mean motion
15.31210229 rev/d
Perigee alt
465.9 km
Apogee alt
478.5 km
Semi-major
6,850.3 km
B*
4.3030e-4
RAAN
211.8926°
Arg perigee
156.4669°
Mean anomaly
203.6992°
Rev number
16,100

§ Raw data

HORS 21 57196U 23091AG  26145.16647875  .00012917  00000+0  43030-3 0  99972 57196  97.5099 211.8926 0009156 156.4669 203.6992 15.31210229161001

JSON: /api/v1/satellites/57196 · /tle

For live sub-satellite position, see the globe view (requires WebGL).

§ Visibility from observer

Set your observer location to see the next 7 days of passes ≥ 10°. The values pass through the URL so the page stays shareable.

No JS? Fill the form by hand. The geolocation button needs JavaScript.

§ Radio — SatNOGS DB

ModeDescriptionDownlinkUplink
FSK Mode U - FSK38k4 435.500 MHz
FSK Mode U - Transmitter 435.500 MHz

2 transmitters · refreshed weekly from db.satnogs.org